When you browse on this site, cookies collect data to enhance your experience and personalize the content and advertising you see.
Visit our Privacy Policy to learn more. By continuing to use the site, you agree to this use of cookies and data.
  • In France
  • List of Countries
  • For 7 days
  • Water Temperature
  • Satellite Maps
  • Weather Map
  • Weather Widgets
  • user-avatar
    Login

    Hourly Weather Brisbane

    Today, 12 December, Wednesday

    Time Temperature Precipitation Wind Pressure Humidity
    00:00 +21°C° 0 mm 2 mps 760 mmHg 87%
    01:00 +22°C° 0 mm 1 mps 759 mmHg 89%
    02:00 +22°C° 0 mm 1 mps 759 mmHg 89%
    03:00 +22°C° 0 mm 1 mps 759 mmHg 90%
    04:00 +22°C° 0 mm 1 mps 758 mmHg 90%
    05:00 +23°C° 0 mm 1 mps 758 mmHg 83%
    06:00 +24°C° 0 mm 1 mps 759 mmHg 77%
    07:00 +25°C° 0 mm 1 mps 759 mmHg 70%
    08:00 +27°C° 0 mm 1 mps 759 mmHg 62%
    09:00 +29°C° 0 mm 2 mps 759 mmHg 53%
    10:00 +31°C° 0 mm 2 mps 759 mmHg 46%
    11:00 +31°C° 0 mm 2 mps 758 mmHg 43%
    12:00 +33°C° 0 mm 3 mps 758 mmHg 41%
    13:00 +34°C° 0 mm 3 mps 757 mmHg 38%
    14:00 +33°C° 0 mm 4 mps 757 mmHg 41%
    15:00 +32°C° 0 mm 4 mps 757 mmHg 43%
    16:00 +32°C° 0 mm 4 mps 756 mmHg 46%
    17:00 +29°C° 0 mm 4 mps 756 mmHg 54%
    18:00 +27°C° 0 mm 4 mps 757 mmHg 62%
    19:00 +25°C° 0 mm 4 mps 757 mmHg 70%
    20:00 +24°C° 0 mm 3 mps 757 mmHg 75%
    21:00 +24°C° 0 mm 3 mps 757 mmHg 80%
    22:00 +23°C° 0 mm 2 mps 757 mmHg 84%
    23:00 +23°C° 0 mm 2 mps 757 mmHg 85%

    Tomorrow, 13 December, Thursday

    Time Temperature Precipitation Wind Pressure Humidity
    00:00 +23°C° 0 mm 2 mps 757 mmHg 85%
    01:00 +21°C° 0 mm 2 mps 757 mmHg 86%
    02:00 +21°C° 0 mm 2 mps 757 mmHg 87%
    03:00 +21°C° 0 mm 2 mps 757 mmHg 88%
    04:00 +21°C° 0 mm 2 mps 756 mmHg 88%
    05:00 +23°C° 0 mm 2 mps 756 mmHg 82%
    06:00 +24°C° 0 mm 2 mps 756 mmHg 75%
    07:00 +25°C° 0 mm 2 mps 755 mmHg 68%
    08:00 +28°C° 0 mm 3 mps 755 mmHg 58%
    09:00 +30°C° 0 mm 4 mps 755 mmHg 48%
    10:00 +34°C° 0 mm 4 mps 754 mmHg 39%
    11:00 +35°C° 0 mm 5 mps 754 mmHg 37%
    12:00 +36°C° 0 mm 5 mps 753 mmHg 35%
    13:00 +38°C° 0 mm 6 mps 753 mmHg 34%
    14:00 +36°C° 0 mm 7 mps 752 mmHg 37%
    15:00 +35°C° 0 mm 7 mps 751 mmHg 41%
    16:00 +34°C° 0 mm 8 mps 750 mmHg 45%
    17:00 +32°C° 0 mm 8 mps 750 mmHg 52%
    18:00 +29°C° 0 mm 8 mps 750 mmHg 59%
    19:00 +28°C° 0 mm 8 mps 751 mmHg 66%
    20:00 +27°C° 0.2 mm 7 mps 751 mmHg 69%
    21:00 +26°C° 0.2 mm 6 mps 752 mmHg 73%
    22:00 +26°C° 0.2 mm 5 mps 753 mmHg 77%
    23:00 +25°C° 1.8 mm 5 mps 753 mmHg 81%

    Day after tomorrow, 14 December, Friday

    Time Temperature Precipitation Wind Pressure Humidity
    00:00 +25°C° 1.8 mm 4 mps 752 mmHg 86%
    01:00 +24°C° 1.8 mm 3 mps 752 mmHg 90%
    02:00 +24°C° 2.2 mm 3 mps 752 mmHg 91%
    03:00 +24°C° 2.2 mm 3 mps 752 mmHg 92%
    04:00 +24°C° 2.2 mm 3 mps 752 mmHg 93%
    05:00 +25°C° 1.2 mm 3 mps 752 mmHg 93%
    06:00 +25°C° 1.2 mm 3 mps 752 mmHg 92%
    07:00 +25°C° 1.2 mm 4 mps 753 mmHg 92%
    08:00 +26°C° 0.3 mm 4 mps 752 mmHg 88%
    09:00 +27°C° 0.3 mm 5 mps 752 mmHg 84%
    10:00 +27°C° 0.3 mm 5 mps 752 mmHg 80%
    11:00 +28°C° 0.3 mm 5 mps 752 mmHg 77%
    12:00 +28°C° 0.3 mm 5 mps 751 mmHg 74%
    13:00 +28°C° 0.3 mm 5 mps 751 mmHg 71%
    14:00 +29°C° 0.1 mm 5 mps 751 mmHg 72%
    15:00 +29°C° 0.1 mm 5 mps 751 mmHg 73%
    16:00 +29°C° 0.1 mm 5 mps 750 mmHg 75%
    17:00 +28°C° 0.2 mm 4 mps 751 mmHg 78%
    18:00 +27°C° 0.2 mm 4 mps 751 mmHg 82%
    19:00 +27°C° 0.2 mm 4 mps 752 mmHg 86%
    20:00 +26°C° 0.9 mm 4 mps 752 mmHg 87%
    21:00 +26°C° 0.9 mm 4 mps 753 mmHg 88%
    22:00 +26°C° 0.9 mm 5 mps 753 mmHg 89%
    23:00 +26°C° 1.2 mm 4 mps 753 mmHg 90%

    15 December, Saturday

    Time Temperature Precipitation Wind Pressure Humidity
    00:00 +25°C° 1.2 mm 4 mps 752 mmHg 91%
    01:00 +25°C° 1.2 mm 4 mps 752 mmHg 92%
    02:00 +25°C° 0.3 mm 3 mps 752 mmHg 92%
    03:00 +25°C° 0.3 mm 3 mps 752 mmHg 93%
    04:00 +25°C° 0.3 mm 3 mps 753 mmHg 94%
    05:00 +25°C° 0.5 mm 3 mps 753 mmHg 93%
    06:00 +25°C° 0.5 mm 3 mps 754 mmHg 93%
    07:00 +25°C° 0.5 mm 3 mps 754 mmHg 92%
    08:00 +26°C° 0.3 mm 4 mps 754 mmHg 90%
    09:00 +27°C° 0.3 mm 5 mps 754 mmHg 87%
    10:00 +27°C° 0.3 mm 6 mps 754 mmHg 84%
    11:00 +27°C° 0.3 mm 5 mps 754 mmHg 82%
    12:00 +28°C° 0.3 mm 5 mps 754 mmHg 81%
    13:00 +28°C° 0.3 mm 5 mps 754 mmHg 79%
    14:00 +27°C° 0.2 mm 4 mps 753 mmHg 81%
    15:00 +27°C° 0.2 mm 4 mps 753 mmHg 83%
    16:00 +27°C° 0.2 mm 3 mps 753 mmHg 85%
    17:00 +26°C° 0.1 mm 3 mps 753 mmHg 88%
    18:00 +26°C° 0.1 mm 2 mps 754 mmHg 90%
    19:00 +25°C° 0.1 mm 2 mps 754 mmHg 92%
    20:00 +25°C° 0 mm 2 mps 755 mmHg 93%
    21:00 +25°C° 0 mm 2 mps 755 mmHg 94%
    22:00 +25°C° 0 mm 1 mps 755 mmHg 95%
    23:00 +25°C° 0.1 mm 1 mps 755 mmHg 95%

    16 December, Sunday

    Time Temperature Precipitation Wind Pressure Humidity
    00:00 +25°C° 0.1 mm 1 mps 754 mmHg 95%
    01:00 +25°C° 0.1 mm 1 mps 754 mmHg 95%
    02:00 +25°C° 0.1 mm 1 mps 754 mmHg 95%
    03:00 +25°C° 0.1 mm 1 mps 754 mmHg 96%
    04:00 +25°C° 0.1 mm 2 mps 753 mmHg 96%
    05:00 +25°C° 0.1 mm 1 mps 754 mmHg 94%
    06:00 +26°C° 0.1 mm 1 mps 754 mmHg 92%
    07:00 +26°C° 0.1 mm 1 mps 755 mmHg 90%
    08:00 +27°C° 1.1 mm 2 mps 755 mmHg 88%
    09:00 +27°C° 1.1 mm 2 mps 755 mmHg 85%
    10:00 +28°C° 1.1 mm 2 mps 755 mmHg 83%
    11:00 +27°C° 1.6 mm 2 mps 755 mmHg 84%
    12:00 +27°C° 1.6 mm 2 mps 754 mmHg 86%
    13:00 +27°C° 1.6 mm 2 mps 754 mmHg 87%
    14:00 +26°C° 2.1 mm 2 mps 753 mmHg 89%
    15:00 +26°C° 2.1 mm 2 mps 753 mmHg 90%
    16:00 +26°C° 2.1 mm 2 mps 752 mmHg 92%
    17:00 +26°C° 2.4 mm 3 mps 752 mmHg 93%
    18:00 +25°C° 2.4 mm 3 mps 752 mmHg 93%
    19:00 +25°C° 2.4 mm 4 mps 752 mmHg 94%
    20:00 +25°C° 3.4 mm 4 mps 752 mmHg 94%
    21:00 +25°C° 3.4 mm 5 mps 752 mmHg 94%
    22:00 +25°C° 3.4 mm 5 mps 752 mmHg 94%
    23:00 +24°C° 5.1 mm 6 mps 751 mmHg 93%

    17 December, Monday

    Time Temperature Precipitation Wind Pressure Humidity
    00:00 +24°C° 5.1 mm 6 mps 750 mmHg 92%
    01:00 +24°C° 5.1 mm 6 mps 749 mmHg 91%
    02:00 +24°C° 7.5 mm 7 mps 749 mmHg 91%
    03:00 +24°C° 7.5 mm 8 mps 748 mmHg 92%
    04:00 +24°C° 7.5 mm 9 mps 747 mmHg 92%
    05:00 +24°C° 10.7 mm 9 mps 748 mmHg 91%
    06:00 +24°C° 10.7 mm 9 mps 748 mmHg 91%
    07:00 +24°C° 10.7 mm 9 mps 748 mmHg 91%
    08:00 +26°C° 3.8 mm 10 mps 748 mmHg 88%
    09:00 +26°C° 3.8 mm 10 mps 748 mmHg 86%
    10:00 +27°C° 3.8 mm 10 mps 748 mmHg 84%
    11:00 +27°C° 0.5 mm 10 mps 748 mmHg 82%
    12:00 +27°C° 0.5 mm 10 mps 747 mmHg 80%
    13:00 +27°C° 0.5 mm 9 mps 747 mmHg 77%
    14:00 +27°C° 0.3 mm 9 mps 747 mmHg 78%
    15:00 +27°C° 0.3 mm 9 mps 747 mmHg 78%
    16:00 +27°C° 0.3 mm 8 mps 747 mmHg 79%
    17:00 +26°C° 0.1 mm 8 mps 748 mmHg 80%
    18:00 +26°C° 0.1 mm 7 mps 749 mmHg 82%
    19:00 +26°C° 0.1 mm 7 mps 750 mmHg 84%
    20:00 +26°C° 0 mm 7 mps 750 mmHg 84%
    21:00 +26°C° 0 mm 6 mps 750 mmHg 84%
    22:00 +26°C° 0 mm 6 mps 751 mmHg 85%
    23:00 +26°C° 0 mm 6 mps 751 mmHg 85%
    Show more